Showing default

FLOCK 4Q 1, 58270

Orbit data source: Space-Track

FLOCK 4Q 1, 58270 is a payload satellite owned by Planet (US) in SSO that was launched on Sat, 11 Nov 2023 UTC via an FALCON 9 launch vehicle from the Air Force Western Test Range (AFWTR). Payload-class satellites include a variety of spacecraft equipped with specific instruments for various scientific and technological missions. These include communications satellites like Starlink; space stations such as the ISS; scientific satellites like the Hubble; Earth observation satellites from companies like Planet Labs, Umbra, and HawkEye 360; GPS; miniature CubeSats for education and research; and military/defense satellites.

Not visible in the next 10 days
Identifier
58270, 2023-174Q
Orbit
SSO
Country
Flag of USUS
Related business
Manufacturer
Planet
Mission
Non-operational Commercial Imaging
Bus & Motor
CUBESAT 3U, Unknown motor
Mass
5.7 kg wet, 5.7 kg dry
Launch date (UTC)
2023-11-11 (2 years ago)
Launch vehicle
FALCON 9
Launch site
Air Force Western Test Range (AFWTR)
Object type
Payload
Rocket body
Debris
Shape & HBR
Box + 2 Pan, 1.0 m
Radar Cross Section
0.072 m², Medium (>0.1 m² and < 1m²)

Expand to show TLE details & history
Last TLE update: 8 hours ago

TLE from 8 hours ago
0 FLOCK 4Q 1
1 58270U 23174Q   26126.76984969  .00084871  00000-0  60629-3 0  9998
2 58270  97.3826 219.0467 0005154 281.3636  78.7048 15.73498579139478
Epoch: 2026-05-06T18:28Z
TLE epoch observation values (Epoch: 2026-05-06T18:28:35.013Z)
Latitude
-0.0001°
Longitude
77.27524°
Altitude
351.393 km
Speed
7.699 km/s
True Right ascension
14h 36m 11s
True Declination
0° 00' 00"
Sunlit
Object was in full shadow at epoch
Visualization orbit readout
Latitude
Unknown
Longitude
Unknown
Altitude
Unknown
Speed
Unknown
Apparent Right ascension
Unknown
Apparent Declination
Unknown
Sunlit
N/A
Visualization observer readout
Local Sidereal Time
10:22:13
Azimuth
Unknown
Elevation
Unknown
Doppler factor
Unknown
Orbital elements
Apogee altitude
349.266 km
Perigee altitude
342.335 km
Semi-major axis
6,723.938 km
Eccentricity
0.00052
Inclination
97.3826°
RAAN
219.0467°
Arg. of periapsis
281.3636°
True anomaly
78.76272°
Mean anomaly
78.7048°
Eccentric anomaly
78.73376°
Mean motion
3.93648 °/min
Orbital period
91.45 mins
BSTAR
0.00060629
Loading maneuver chart data...
Computing Atmospheric mass density...
Loading historical data...
Loading historical data...
Loading historical data...
Loading historical data...
Loading historical data...
Loading historical data...
Loading historical data...

Documentation

Showing up to 5 results
|